FW4844 Weather Reports


Display with metric or nautical units.
time (UTC)temp
F
wind
direction
speed
MPH
gust
MPH
rain 1hr
in
rain 24hr
in
rain mn
in
humidity
%
barometer
mb
20260901110604 59 343 1.0 3.0 0.05 0.11 0.11 98 1016.2
20260901110104 59 340 1.0 3.0 0.05 0.11 0.11 98 1016.2
20260901105605 59 18 1.0 2.0 0.04 0.10 0.10 98 1016.1
20260901105105 59 37 1.0 2.0 0.03 0.09 0.09 98 1016.2
20260901104604 59 37 1.0 2.0 0.03 0.08 0.08 98 1016.2
20260901104105 59 37 1.0 2.0 0.03 0.08 0.08 98 1016.1
20260901103105 59 37 0.0 2.0 0.02 0.07 0.07 98 1015.8
20260901102605 59 37 1.0 2.0 0.02 0.07 0.07 98 1015.8
20260901102104 59 37 1.0 2.0 0.02 0.06 0.06 98 1015.8
20260901101605 59 37 1.0 2.0 0.03 0.06 0.06 98 1015.7
20260901101104 59 39 1.0 2.0 0.03 0.06 0.06 98 1015.6
20260901100605 59 39 0.0 2.0 0.04 0.06 0.06 97 1015.5
20260901100104 59 39 0.0 1.0 0.05 0.06 0.06 97 1015.5
20260901095605 59 39 0.0 1.0 0.05 0.06 0.06 97 1015.4
20260901095322 59 39 0.0 1.0 0.06 0.06 0.06 98 1015.4
20260901094605 59 39 0.0 1.0 0.05 0.05 0.05 97 1015.3
20260901094104 59 39 0.0 1.0 0.05 0.05 0.05 97 1015.3
20260901093605 59 38 0.0 1.0 0.05 0.05 0.05 97 1015.4
20260901093104 59 38 0.0 1.0 0.05 0.05 0.05 97 1015.6
20260901092605 59 38 0.0 2.0 0.05 0.05 0.05 97 1015.7
20260901092104 59 38 0.0 2.0 0.04 0.04 0.04 97 1015.6
20260901091829 59 38 1.0 3.0 0.03 0.03 0.03 97 1015.6
20260901091105 59 38 1.0 3.0 0.03 0.03 0.03 97 1015.7
20260901090602 59 38 1.0 3.0 0.02 0.02 0.02 97 1015.8
20260901090103 60 38 0.0 3.0 0.01 0.01 0.01 97 1015.8
20260901085818 60 39 0.0 1.0 0.01 0.01 0.01 97 1015.8
20260901085048 60 39 0.0 1.0 0.00 0.00 0.00 97 1015.6
20260901084541 60 39 0.0 2.0 0.00 0.00 0.00 97 1015.6
20260901084035 60 39 0.0 2.0 0.00 0.00 0.00 97 1015.7
20260901083525 60 39 0.0 2.0 0.00 0.00 0.00 97 1015.7
20260901083022 60 39 0.0 2.0 0.00 0.00 0.00 97 1015.7
20260901082513 60 39 1.0 2.0 0.00 0.00 0.00 97 1015.6
20260901081458 60 39 0.0 1.0 0.00 0.00 0.00 97 1015.6
20260901081212 60 39 0.0 1.0 0.00 0.01 0.00 97 1015.7
20260901080437 60 39 0.0 0.0 0.00 0.01 0.00 97 1015.8
20260901075931 60 39 0.0 1.0 0.00 0.01 0.00 97 1015.9
20260901075425 60 39 0.0 1.0 0.00 0.01 0.00 97 1015.8
20260901074915 60 39 1.0 2.0 0.00 0.01 0.00 97 1015.7
20260901074409 60 39 1.0 4.0 0.00 0.01 0.00 97 1015.9
20260901073903 60 39 1.0 4.0 0.00 0.01 0.00 97 1016.0
20260901073352 60 84 0.0 0.0 0.00 0.01 0.00 97 1015.8
20260901072847 60 84 0.0 0.0 0.00 0.01 0.00 97 1015.9
20260901072341 60 84 0.0 0.0 0.00 0.01 0.00 97 1016.0
20260901071831 60 84 0.0 2.0 0.00 0.01 0.00 97 1016.0
20260901071325 60 84 0.0 2.0 0.00 0.01 0.00 97 1016.0
20260901070819 60 84 0.0 2.0 0.00 0.01 0.00 97 1016.0
20260901070309 60 84 1.0 2.0 0.00 0.01 0.00 97 1016.1
20260901065803 60 84 1.0 2.0 0.00 0.01 0.00 97 1016.1
20260901065518 60 84 0.0 2.0 0.00 0.01 0.00 97 1016.2
20260901064748 60 84 0.0 1.0 0.00 0.01 0.00 97 1016.0
20260901064240 60 84 0.0 1.0 0.00 0.01 0.00 97 1015.9
20260901063735 60 84 0.0 1.0 0.00 0.01 0.00 97 1016.0
20260901063225 60 84 0.0 1.0 0.00 0.01 0.00 97 1015.9
20260901062719 60 84 0.0 2.0 0.00 0.01 0.00 97 1015.9
20260901062212 60 84 0.0 2.0 0.00 0.01 0.00 97 1016.0
20260901061918 60 84 0.0 1.0 0.00 0.01 0.00 97 1016.2
20260901061157 60 84 0.0 1.0 0.00 0.01 0.00 97 1016.4
20260901060651 60 84 0.0 1.0 0.00 0.01 0.00 97 1016.5
20260901060404 60 84 0.0 2.0 0.00 0.01 0.00 97 1016.5
20260901055635 60 84 0.0 2.0 0.00 0.01 0.00 97 1016.6
20260901055129 59 83 0.0 1.0 0.00 0.01 0.00 97 1016.6
20260901054838 59 83 0.0 1.0 0.00 0.01 0.00 97 1016.5
20260901054113 59 83 0.0 1.0 0.00 0.01 0.00 97 1016.5
20260901053607 59 83 0.0 2.0 0.00 0.01 0.00 96 1016.4
20260901053057 60 83 0.0 2.0 0.00 0.01 0.00 96 1016.5
20260901052551 60 78 0.0 2.0 0.00 0.01 0.00 97 1016.8
20260901052307 60 78 0.0 1.0 0.00 0.01 0.00 96 1016.7
20260901051757 60 78 0.0 0.0 0.00 0.01 0.00 96 1016.8
20260901051028 60 78 0.0 0.0 0.00 0.01 0.00 96 1016.8
20260901050523 60 78 0.0 1.0 0.00 0.01 0.00 96 1016.9
20260901050013 60 78 0.0 1.0 0.00 0.01 0.00 96 1017.0
20260901045507 60 78 0.0 2.0 0.00 0.01 0.00 96 1016.9
20260901045001 60 78 0.0 2.0 0.00 0.01 0.00 96 1016.9
20260901044451 60 78 0.0 2.0 0.00 0.01 0.00 96 1016.9
20260901043945 61 78 0.0 1.0 0.00 0.01 0.00 97 1016.9
20260901043713 61 78 0.0 2.0 0.00 0.01 0.00 97 1016.9
20260901043155 61 78 1.0 3.0 0.00 0.01 0.00 97 1016.9
20260901042421 61 78 2.0 4.0 0.00 0.01 0.00 97 1017.0
20260901042136 61 78 2.0 4.0 0.00 0.01 0.00 97 1017.1
20260901041626 60 37 2.0 4.0 0.00 0.01 0.00 97 1017.1
20260901040859 60 327 1.0 4.0 0.00 0.01 0.00 97 1017.0
20260901040353 60 325 1.0 3.0 0.00 0.01 0.00 97 1017.0
20260901040103 60 325 1.0 3.0 0.00 0.01 0.01 97 1017.1
20260901035337 60 325 1.0 3.0 0.00 0.01 0.01 97 1016.8
20260901034831 60 325 1.0 3.0 0.00 0.01 0.01 97 1016.9
20260901034321 60 325 1.0 3.0 0.00 0.01 0.01 97 1016.7
20260901033815 60 315 2.0 4.0 0.00 0.01 0.01 97 1016.7
20260901033309 60 315 2.0 4.0 0.00 0.01 0.01 97 1016.6
20260901033023 60 313 1.0 3.0 0.00 0.01 0.01 97 1016.6
20260901032258 60 312 0.0 2.0 0.00 0.01 0.01 97 1016.5
20260901031747 60 312 0.0 2.0 0.00 0.01 0.01 97 1016.6
20260901031459 60 312 1.0 2.0 0.00 0.01 0.01 97 1016.8
20260901030731 60 312 1.0 3.0 0.00 0.01 0.01 97 1016.7
20260901030448 60 312 1.0 3.0 0.00 0.01 0.01 97 1016.7
20260901025719 60 269 1.0 2.0 0.00 0.01 0.01 97 1016.8
20260901025213 60 270 0.0 2.0 0.00 0.01 0.01 97 1016.9
20260901024707 60 269 0.0 1.0 0.00 0.01 0.01 97 1017.0
20260901024157 61 269 0.0 1.0 0.00 0.01 0.01 97 1017.1
20260901023651 61 269 0.0 1.0 0.00 0.01 0.01 97 1017.1
20260901023412 61 269 0.0 0.0 0.00 0.01 0.01 97 1017.1
20260901022635 61 269 0.0 0.0 0.00 0.01 0.01 97 1017.1
20260901022129 61 269 0.0 1.0 0.00 0.02 0.01 97 1017.2
20260901021623 61 269 0.0 2.0 0.00 0.02 0.01 97 1017.2
20260901021113 61 269 1.0 2.0 0.00 0.02 0.01 97 1017.2
20260901020101 60 269 1.0 3.0 0.00 0.02 0.01 97 1017.2
20260901015810 60 236 1.0 2.0 0.00 0.02 0.01 96 1017.3
20260901015044 60 236 1.0 2.0 0.00 0.02 0.01 96 1017.2
20260901014538 60 236 1.0 3.0 0.00 0.02 0.01 96 1017.2
20260901014030 61 236 1.0 3.0 0.00 0.02 0.01 96 1017.2
20260901013523 60 215 1.0 2.0 0.00 0.02 0.01 96 1017.1
20260901013016 60 215 0.0 1.0 0.00 0.02 0.01 96 1017.0
20260901012507 60 215 1.0 2.0 0.00 0.02 0.01 96 1017.0
20260901012001 61 215 0.0 2.0 0.00 0.02 0.01 96 1016.9
20260901011455 61 215 0.0 2.0 0.00 0.02 0.01 96 1017.0
20260901010945 61 215 0.0 2.0 0.00 0.02 0.01 95 1017.0
20260901010439 62 215 0.0 2.0 0.00 0.02 0.01 95 1017.0
20260901005933 62 215 0.0 0.0 0.00 0.02 0.01 95 1016.9
20260901005427 62 215 0.0 0.0 0.00 0.02 0.01 95 1016.9
20260901004926 63 215 0.0 0.0 0.00 0.02 0.01 94 1016.9
20260901004425 63 215 0.0 0.0 0.00 0.03 0.01 94 1017.0
20260901003925 63 215 0.0 1.0 0.00 0.03 0.01 94 1017.1
20260901003426 63 215 0.0 1.0 0.00 0.03 0.01 94 1017.0
20260901002924 64 215 0.0 1.0 0.00 0.03 0.01 93 1016.9
20260901002422 64 215 0.0 1.0 0.00 0.03 0.01 93 1016.9
20260901001919 64 215 0.0 1.0 0.00 0.04 0.01 93 1016.9
20260901001642 64 215 0.0 1.0 0.00 0.04 0.01 93 1016.9
20260901000917 64 215 0.0 1.0 0.00 0.04 0.01 93 1017.0
20260901000415 64 215 0.0 1.0 0.00 0.05 0.01 92 1017.0
20260831235916 64 215 0.0 1.0 0.00 0.05 0.01 93 1017.0
20260831235416 64 215 0.0 1.0 0.00 0.05 0.01 93 1016.9
20260831234916 64 215 0.0 0.0 0.00 0.05 0.01 93 1017.0
20260831234414 64 215 0.0 0.0 0.00 0.05 0.01 93 1017.0
20260831233912 65 215 0.0 0.0 0.00 0.05 0.01 93 1017.0
20260831232900 65 215 0.0 0.0 0.00 0.05 0.01 92 1017.1
20260831231853 65 215 0.0 0.0 0.00 0.05 0.01 91 1017.1
20260831231618 65 215 0.0 0.0 0.00 0.05 0.01 90 1017.2
20260831231115 65 215 0.0 2.0 0.00 0.05 0.01 90 1017.2
20260831230345 66 215 0.0 2.0 0.00 0.05 0.01 89 1017.2
20260831225846 66 215 1.0 2.0 0.00 0.05 0.01 88 1017.2
20260831225349 66 215 2.0 4.0 0.00 0.05 0.01 88 1017.1
20260831225113 66 215 2.0 4.0 0.00 0.05 0.01 89 1017.2
20260831224609 66 215 1.0 3.0 0.00 0.05 0.01 89 1017.2
20260831223843 66 214 0.0 2.0 0.00 0.05 0.01 89 1017.2
20260831223343 66 214 0.0 1.0 0.00 0.05 0.01 88 1017.2
20260831222839 67 214 0.0 0.0 0.00 0.05 0.01 88 1017.4
20260831222340 67 214 0.0 1.0 0.00 0.05 0.01 88 1017.4
20260831221834 67 214 0.0 1.0 0.00 0.05 0.01 86 1017.4
20260831221334 67 214 1.0 4.0 0.00 0.05 0.01 86 1017.4
20260831220833 67 214 1.0 4.0 0.00 0.05 0.01 86 1017.4
20260831220334 67 219 2.0 4.0 0.00 0.05 0.01 86 1017.5
20260831220100 67 219 2.0 5.0 0.00 0.05 0.01 86 1017.5
20260831215334 67 222 2.0 5.0 0.00 0.05 0.01 85 1017.5
20260831214834 67 207 3.0 6.0 0.00 0.05 0.01 85 1017.5
20260831214334 67 229 3.0 6.0 0.00 0.05 0.01 84 1017.6
20260831213834 68 196 3.0 6.0 0.00 0.05 0.01 83 1017.6
20260831213333 68 180 3.0 5.0 0.00 0.05 0.01 83 1017.6
20260831212833 68 212 3.0 7.0 0.00 0.05 0.01 82 1017.5
20260831212330 69 181 3.0 7.0 0.00 0.05 0.01 81 1017.5
20260831211830 69 198 4.0 7.0 0.00 0.05 0.01 81 1017.5
20260831211550 69 200 4.0 7.0 0.00 0.05 0.01 80 1017.5
20260831210829 69 229 3.0 7.0 0.00 0.05 0.01 80 1017.5
20260831210330 69 209 3.0 7.0 0.00 0.05 0.01 80 1017.4
20260831210056 69 197 2.0 7.0 0.00 0.05 0.01 81 1017.5
20260831205329 69 212 3.0 8.0 0.00 0.05 0.01 80 1017.6
20260831205052 69 222 3.0 10.0 0.00 0.05 0.01 77 1017.6
20260831204330 70 182 3.0 10.0 0.00 0.05 0.01 77 1017.5
20260831203829 70 223 1.0 6.0 0.00 0.05 0.01 78 1017.5
20260831203329 70 150 0.0 2.0 0.00 0.05 0.01 78 1017.5
20260831202830 70 150 0.0 2.0 0.00 0.05 0.01 80 1017.5
20260831202548 70 150 0.0 1.0 0.00 0.05 0.01 80 1017.5
20260831201829 70 150 1.0 3.0 0.00 0.05 0.01 75 1017.5
20260831201329 70 150 1.0 3.0 0.00 0.05 0.01 74 1017.5
20260831200830 71 150 1.0 7.0 0.00 0.05 0.01 75 1017.5
20260831200328 71 150 1.0 7.0 0.00 0.05 0.01 72 1017.5
20260831195828 72 81 1.0 4.0 0.00 0.05 0.01 70 1017.5
20260831195548 73 82 2.0 7.0 0.00 0.05 0.01 70 1017.5
20260831194827 72 137 1.0 7.0 0.00 0.05 0.01 72 1017.7
20260831194327 71 126 2.0 6.0 0.00 0.05 0.01 68 1017.7
20260831193828 71 115 2.0 6.0 0.00 0.05 0.01 74 1017.9
20260831193550 72 132 2.0 5.0 0.00 0.05 0.01 67 1017.8
20260831192828 73 128 2.0 5.0 0.00 0.05 0.01 65 1017.8
20260831192544 73 346 2.0 5.0 0.00 0.05 0.01 69 1018.0
20260831191825 72 162 2.0 5.0 0.00 0.05 0.01 71 1018.0
20260831191318 71 212 1.0 3.0 0.00 0.05 0.01 70 1018.0
20260831190813 70 213 0.0 3.0 0.00 0.05 0.01 76 1018.1
20260831190310 70 213 1.0 3.0 0.00 0.05 0.01 76 1018.1
20260831185807 69 213 0.0 3.0 0.00 0.05 0.01 72 1018.2
20260831185307 69 230 0.0 2.0 0.00 0.05 0.01 79 1018.2
20260831185035 70 230 0.0 2.0 0.00 0.05 0.01 79 1018.4
20260831184527 69 230 0.0 1.0 0.00 0.05 0.01 74 1018.2
20260831183805 69 230 0.0 1.0 0.00 0.05 0.01 78 1018.2
20260831183306 69 230 1.0 5.0 0.00 0.05 0.01 77 1018.2
20260831182801 69 229 2.0 5.0 0.00 0.05 0.01 76 1018.2
20260831182259 69 242 1.0 5.0 0.00 0.05 0.01 72 1018.4
20260831181759 69 232 1.0 7.0 0.00 0.05 0.01 75 1018.4
20260831181257 69 232 2.0 7.0 0.00 0.05 0.01 73 1018.2
20260831180755 69 232 3.0 7.0 0.00 0.05 0.01 74 1018.5
20260831180255 70 242 2.0 7.0 0.00 0.05 0.01 72 1018.5
20260831175756 69 217 2.0 4.0 0.00 0.05 0.01 73 1018.7
20260831175254 70 196 2.0 6.0 0.00 0.05 0.01 74 1018.8
20260831174755 71 190 3.0 7.0 0.00 0.05 0.01 70 1018.8
20260831174244 71 225 4.0 9.0 0.00 0.05 0.01 70 1019.0
20260831174009 70 191 4.0 9.0 0.00 0.05 0.01 75 1018.9
20260831173232 72 188 3.0 9.0 0.00 0.05 0.01 71 1019.0
20260831172722 72 214 3.0 8.0 0.00 0.05 0.01 70 1019.0
20260831172216 71 197 2.0 7.0 0.00 0.05 0.01 74 1018.9
20260831171710 70 204 2.0 7.0 0.00 0.05 0.01 73 1019.0
20260831171159 71 189 3.0 7.0 0.00 0.05 0.01 75 1019.1
20260831170148 70 131 3.0 8.0 0.00 0.05 0.01 75 1019.2
20260831165638 70 223 3.0 8.0 0.00 0.05 0.01 75 1019.1
20260831165132 70 239 2.0 6.0 0.00 0.05 0.01 76 1019.1
20260831164626 70 200 2.0 4.0 0.00 0.05 0.01 75 1019.3
20260831164116 70 200 3.0 7.0 0.00 0.05 0.01 73 1019.2
20260831163610 69 235 4.0 7.0 0.00 0.05 0.01 72 1019.3
20260831163104 70 227 4.0 8.0 0.00 0.05 0.01 72 1019.3
20260831162823 70 223 2.0 8.0 0.00 0.05 0.01 74 1019.2
20260831161559 69 148 1.0 5.0 0.00 0.05 0.01 78 1019.4
20260831161057 69 190 1.0 5.0 0.00 0.05 0.01 78 1019.4
20260831160557 70 198 2.0 6.0 0.00 0.05 0.01 78 1019.5
20260831160315 69 156 2.0 7.0 0.00 0.05 0.01 79 1019.6
20260831155555 69 218 2.0 7.0 0.00 0.05 0.01 76 1019.6
20260831155053 70 215 3.0 8.0 0.00 0.05 0.01 80 1019.6
20260831154553 69 253 4.0 8.0 0.00 0.05 0.01 70 1019.6
20260831154054 69 192 2.0 7.0 0.00 0.05 0.01 74 1019.6
20260831153815 69 230 1.0 4.0 0.00 0.05 0.01 81 1019.6
20260831153051 67 244 2.0 8.0 0.00 0.05 0.01 78 1019.7
20260831152556 68 240 3.0 8.0 0.00 0.05 0.01 79 1019.8
20260831152049 67 234 2.0 6.0 0.00 0.05 0.01 79 1019.8
20260831151809 67 227 1.0 5.0 0.00 0.05 0.01 84 1019.7
20260831151045 66 247 1.0 4.0 0.00 0.05 0.01 85 1019.8
20260831150259 64 215 1.0 4.0 0.00 0.05 0.01 88 1019.8
20260831145528 65 225 1.0 3.0 0.00 0.05 0.01 89 1019.7
20260831144525 64 242 2.0 7.0 0.00 0.05 0.01 87 1019.7
20260831144029 64 242 2.0 6.0 0.00 0.05 0.01 90 1019.7
20260831143525 63 234 2.0 5.0 0.00 0.05 0.01 89 1019.7
20260831143025 63 250 2.0 9.0 0.00 0.05 0.01 90 1019.8
20260831142525 63 252 2.0 9.0 0.00 0.05 0.01 90 1019.8
20260831142023 63 236 2.0 4.0 0.00 0.05 0.01 92 1019.8
20260831141524 62 246 2.0 4.0 0.00 0.05 0.01 94 1019.9
20260831141253 61 244 2.0 4.0 0.00 0.05 0.01 96 1020.0
20260831140748 62 244 2.0 4.0 0.00 0.05 0.01 97 1020.0
20260831140249 62 234 2.0 4.0 0.00 0.05 0.01 97 1019.9
20260831135520 61 229 1.0 3.0 0.00 0.05 0.01 98 1020.0
20260831135018 60 229 1.0 3.0 0.00 0.05 0.01 98 1019.9
20260831134517 60 234 1.0 3.0 0.00 0.05 0.01 98 1019.9
20260831134015 60 234 1.0 3.0 0.00 0.05 0.01 98 1019.9
20260831133511 59 234 1.0 3.0 0.00 0.05 0.01 98 1019.9
20260831133011 59 234 2.0 5.0 0.00 0.05 0.01 99 1019.9
20260831132732 59 234 3.0 5.0 0.00 0.05 0.01 99 1020.0
20260831132011 58 229 3.0 7.0 0.00 0.05 0.01 98 1020.0
20260831131509 58 238 4.0 7.0 0.00 0.05 0.01 98 1020.1
20260831131009 59 223 4.0 7.0 0.00 0.05 0.01 98 1020.1
20260831130510 58 234 3.0 7.0 0.00 0.05 0.01 98 1020.0
20260831130008 58 218 3.0 5.0 0.00 0.05 0.01 98 1020.0
20260831125507 58 229 2.0 4.0 0.00 0.05 0.01 99 1020.0
20260831125005 59 234 2.0 4.0 0.00 0.05 0.01 98 1020.0
20260831124505 58 235 3.0 5.0 0.00 0.05 0.01 98 1020.0
20260831124224 58 235 1.0 5.0 0.00 0.05 0.01 98 1020.1
20260831123502 58 268 1.0 3.0 0.00 0.05 0.01 99 1020.1
20260831123001 58 268 1.0 3.0 0.00 0.05 0.01 98 1020.1
20260831122501 58 268 1.0 3.0 0.00 0.05 0.01 98 1020.1
20260831122001 57 268 2.0 3.0 0.00 0.05 0.01 98 1020.1
20260831121500 57 269 2.0 3.0 0.00 0.05 0.01 98 1020.1
20260831121001 57 275 2.0 3.0 0.00 0.05 0.01 98 1020.0
20260831120501 56 289 0.0 3.0 0.00 0.05 0.01 98 1019.9
20260831120233 56 313 0.0 1.0 0.00 0.05 0.01 98 1019.8
20260831115500 55 313 0.0 1.0 0.00 0.05 0.01 98 1019.8
20260831115001 55 313 0.0 2.0 0.00 0.05 0.01 98 1019.8
20260831114458 55 313 1.0 2.0 0.00 0.05 0.01 98 1019.7
20260831113459 55 313 1.0 2.0 0.00 0.05 0.01 98 1019.7
20260831112957 54 313 0.0 2.0 0.00 0.05 0.01 98 1019.7
20260831112452 54 313 0.0 1.0 0.00 0.05 0.01 98 1019.6
20260831111953 54 313 0.0 1.0 0.00 0.05 0.01 98 1019.6
20260831111452 54 313 0.0 1.0 0.00 0.05 0.01 98 1019.6